map of JRO home
JRO - Airport
Location
City:  Kilimanjaro, Kilimanjaro, Tanzania
Name:Kilimanjaro International Airport
ICAO:HTKJ
IATA:JRO

Details
Type:Airport (Aerodrome, Airfield)
Use:Public/Civil, International (customs port of entry)
Latitude:325'46"S (-3.429443)
Longitude:3704'28"E (37.074444)
Elevation:2932 ft (894 m)
Variation:0.10W (WMM2015 magnetic declination)
0.03 annual change
Runways:1
Longest:11834 × 148 ft (3607 × 45 m), paved

Time
Time Zone:UTC+3
Local Time:

Weather
METAR:HTKJ 220400Z 00000KT 9999 SCT023 BKN080 20/20 Q1015 NOSIG
TAF:HTKJ 212300Z 2200/2224 00000KT 9999 RA BKN024 BKN080
BECMG 2202/2204 BKN024 BKN080
BECMG 2209/2211 09010KT FEW028CB BKN030
BECMG 2217/2219 00000KT BKN026 BKN080

Related Locations
Nearby:
Farthest:NHV: 11570 mi / 18621 km
Nuku Hiva, Marquesas Islands, PF

Find:

   beyond  
but within

Other Information
Maps:
NOTAMs:
Links:
Sources:

  
  • flag of Tanzania
  

Sectional Chart

Flight Planning
at skyvector.com

Satellite Image

Google Maps Satellite view

 

Copyright © 2004-2019 Karl L. Swartz. All rights reserved.
The Great Circle Mapper name and logo are trademarks of the Great Circle Mapper.
All other trademarks mentioned herein belong to their respective owners.
Please see credits for attibutions and further copyright information.

  Follow gcmap on Facebook Follow gcmap on Twitter Follow gcmap on Google+ GCmap on LinkedIn

hCard Microformat

Geo Microformat